Location: Bavegemberg
(50.9500°N, 3.8833°E)
Time: 21:23:27
(UTC+00:00)

Cosmos 1346 Rocket - Pass Details

Date: 17 August 2024
Orbit: 503 x 516 km, 81.2° (Epoch: 16 September)

Event Time Altitude Azimuth Distance (km) Brightness Sun altitude
Exits shadow 03:19:57 - 275° (W) 1,795 5.0 -11.1°
Maximum altitude 03:21:42 11° 301° (WNW) 1,640 5.0 -10.8°
Drops below altitude 10° 03:22:57 10° 321° (NW) 1,726 5.3 -10.7°
Sets 03:26:32 0° 356° (N) 2,621 6.8 -10.2°
